Airfield :
LOGIN :

Register | Disclaimer

   EN    FR    IT 

 










Legend :    VFR   Marginal VFR   IFR   Intensive IFR   Very Intensive IFR
Visi :
Ceiling :
>= 8 km
>= 3000ft
5 to 8 km
1000 to 3000 ft
1500m to 5 km
500 to 1000 ft
800 to 1500m
200 to 500 ft
< 800m
< 200 ft
Symbols :   Thunderstorms  Fog  Heavy snow  Heavy precipitations  Wind > 20 kt
SIGMETs :     Misc.  Thunderstorms  Icing  Turbulence  Mountain Waves  Volcanic Ashes







- Airport Elevation : 245 ft


ETHS - Fassberg

CURRENT METAR :
  • 200520Z 06007KT 1200 BR OVC001 12/12 Q1004 RED BLU TEMPO AMB

EXPIRED METARs :
  • 200420Z 07007KT 1200 BR OVC001 12/12 Q1004 RED
  • 200333Z 06007KT 1400 BR OVC001 12/12 Q1004 RED
  • 200320Z 06006KT 2500 BR OVC002 12/12 Q1004 AMB

TAF AMD TAF ETHS
Valid from the 20 at 05:00 until the 20 at 14:00 UTC


200519Z 2005/2014 05007KT 2000 BR OVC002
TEMPO 2005/2008 04005KT 0500 FG OVC001
BECMG 2008/2010 04008KT 6000 NSW BKN007 BKN100
BECMG 2010/2012 03010KT 9999 NSW SCT025 SCT100 BY ETGQ
No reported NOTAMs for that airfield.



MET'MAP, your aeronautical weather chart ! - Copyright ORBIFLY December 2007 - Disclaimer

ORBIFLY MET'MAP TEAM :

Programming & Development : Alexandra Zaïnal
Concept & Development : Baudouin d'Aumeries
Co-Development & Prog : Marc-Olivier Méhu
Technical & hardware support : Manuel Goepfert

Contact : metmap@orbifly.com




SOURCES & CREDITS :

   NOAA